User: anonymous   Login
Location: Muenchen
(48.1800°N, 11.5800°E)
Time: 07:46:22
(UTC+01:00)
Language:

Sich 1 Rocket - Orbit

View from above orbital plane
View from above orbital plane
View from above satellite
View from above satellite

Ground track
Ground track

The orbit data is extracted from the following two-line orbital elements,

1 23659U 95046C   16336.97881294  .00000056  00000-0  44564-5 0  9995
2 23659  82.5289 128.4358 0026289 156.0948 326.3375 14.78218134145415
Epoch (UTC): 01 December 2016 23:29:29
Eccentricity: 0.0026289
inclination: 82.5289°
perigee height: 616 km
apogee height: 653 km
right ascension of ascending node: 128.4358°
argument of perigee: 156.0948°
revolutions per day: 14.78218134
mean anomaly at epoch: 326.3375°
orbit number at epoch: 14541

The dashed part of the orbit path shows where the satellite is in the earth's shadow,  

DLR